Sierra Vista, AZ

11:22 AM MST on April 28, 2017 (GMT -0700)
Sierra Vista Municipal-Libby Army Air Field

Weather History for KFHU - February, 2015

Change the Weather History Date:

Sunday, February 1, 2015

  Actual Average Record
Temperature  
Mean Temperature 49 °F -  
Max Temperature 59 °F 59 °F 78 °F (2003)
Min Temperature 39 °F 37 °F 11 °F (1985)
Degree Days  
Heating Degree Days 16    
Moisture  
Dew Point 39 °F    
Average Humidity 73    
Maximum Humidity 93    
Minimum Humidity 44    
Precipitation  
Precipitation 0.01 in - - ()
Sea Level Pressure  
Sea Level Pressure 30.05 in    
Wind  
Wind Speed 3 mph (North)    
Max Wind Speed 8 mph    
Max Gust Speed -    
Visibility 10 miles    
Events      
Averages and records for this station are not official NWS values.
T = Trace of Precipitation, MM = Missing Value Source: NWS Daily Summary

Daily Weather History Graph

Daily Weather History Graph

Search for Another Location

Airport or City:

Trip Planner

Search our weather history database for the weather conditions in past years. The results will help you decide how hot, cold, wet, or windy it might be!

Date:

Astronomy

Feb. 01, 2015 Rise Set
Actual Time 7:14 AM MST 5:55 PM MST
Civil Twilight 6:48 AM MST 6:21 PM MST
Nautical Twilight 6:19 AM MST 6:50 PM MST
Astronomical Twilight 5:51 AM MST 7:19 PM MST
Moon 4:17 PM MST (2/1) 5:23 AM MST (2/1)
Length of Visible Light 11h 32m
Length of Day
10h 41m
Waxing Gibbous, 96% of the Moon is Illuminated
Feb 1
Waxing Gibbous
Feb 3
Full
Feb 11
Last Quarter
Feb 18
New
Feb 25
First Quarter

Hourly Weather History & Observations

Time (MST) Temp. Windchill Dew Point Humidity Pressure Visibility Wind Dir Wind Speed Gust Speed Precip Events Conditions
12:56 AM 42.1 °F 37.1 °F 39.0 °F 89% 29.94 in 10.0 mi SSW 8.1 mph - N/A   Scattered Clouds
1:56 AM 43.0 °F 40.3 °F 39.0 °F 86% 29.96 in 10.0 mi SW 4.6 mph - N/A   Overcast
2:56 AM 41.0 °F - 37.9 °F 89% 29.96 in 10.0 mi Calm Calm - N/A   Clear
3:56 AM 41.0 °F - 39.0 °F 93% 29.97 in 10.0 mi Calm Calm - N/A   Overcast
4:56 AM 44.1 °F - 39.9 °F 85% 29.98 in 10.0 mi Calm Calm - N/A   Overcast
5:56 AM 39.9 °F - 37.9 °F 93% 30.00 in 10.0 mi Calm Calm - N/A   Clear
6:56 AM 41.0 °F 38.0 °F 39.0 °F 93% 30.03 in 10.0 mi West 4.6 mph - N/A   Overcast
7:56 AM 44.1 °F - 41.0 °F 89% 30.05 in 10.0 mi Calm Calm - N/A   Overcast
8:56 AM 46.9 °F - 42.1 °F 83% 30.06 in 10.0 mi SSE 3.5 mph - 0.01 in   Mostly Cloudy
9:56 AM 50.0 °F - 41.0 °F 71% 30.06 in 10.0 mi Calm Calm - N/A   Clear
10:54 AM 53.6 °F - 42.8 °F 67% 30.13 in 10.0 mi NNE 6.9 mph - N/A   Mostly Cloudy
10:56 AM 53.1 °F - 42.1 °F 66% 30.08 in 10.0 mi North 6.9 mph - N/A   Mostly Cloudy
11:56 AM 52.0 °F - 39.0 °F 61% 30.08 in 10.0 mi Calm Calm - N/A   Mostly Cloudy
12:56 PM 55.0 °F - 39.0 °F 55% 30.06 in 10.0 mi Calm Calm - N/A   Partly Cloudy
1:56 PM 55.9 °F - 37.0 °F 49% 30.04 in 10.0 mi Calm Calm - N/A   Scattered Clouds
2:56 PM 57.0 °F - 37.0 °F 47% 30.02 in 10.0 mi Calm Calm - N/A   Clear
3:56 PM 59.0 °F - 37.0 °F 44% 30.01 in 10.0 mi Variable 3.5 mph - N/A   Scattered Clouds
4:56 PM 57.0 °F - 37.9 °F 49% 30.01 in 10.0 mi NE 5.8 mph - N/A   Clear
5:56 PM 53.1 °F - 39.9 °F 61% 30.05 in 10.0 mi NNE 5.8 mph - N/A   Partly Cloudy
6:56 PM 50.0 °F - 39.9 °F 68% 30.07 in 10.0 mi NNE 4.6 mph - N/A   Clear
7:56 PM 48.0 °F - 39.9 °F 74% 30.09 in 10.0 mi Calm Calm - N/A   Clear
8:56 PM 46.0 °F - 39.9 °F 79% 30.11 in 10.0 mi Calm Calm - N/A   Clear
9:56 PM 48.0 °F - 39.0 °F 71% 30.12 in 10.0 mi Calm Calm - N/A   Clear
10:56 PM 46.0 °F - 39.9 °F 79% 30.12 in 10.0 mi Calm Calm - N/A   Clear
11:56 PM 46.0 °F - 39.9 °F 79% 30.13 in 10.0 mi Calm Calm - N/A   Clear